| time (UTC) | temp C | wind direction | speed KPH | gust KPH | rain 1hr cm | rain 24hr cm | rain mn cm | humidity % | barometer mb |
| 20260507075526 | 7 | 242 | 1.6 | 8.0 | 0.00 | 0.66 | 0.00 | 89 | |
| 20260507074523 | 7 | 247 | 1.6 | 8.0 | 0.00 | 0.66 | 0.00 | 89 | |
| 20260507073523 | 7 | 241 | 1.6 | 6.4 | 0.00 | 0.66 | 0.00 | 89 | |
| 20260507072604 | 7 | 247 | 1.6 | 6.4 | 0.00 | 0.66 | 0.00 | 90 | |
| 20260507071523 | 7 | 202 | 1.6 | 9.7 | 0.00 | 0.66 | 0.00 | 90 | |
| 20260507070524 | 7 | 236 | 1.6 | 6.4 | 0.00 | 0.66 | 0.00 | 90 | |
| 20260507065523 | 7 | 231 | 1.6 | 6.4 | 0.00 | 0.66 | 0.00 | 89 | |
| 20260507064524 | 7 | 257 | 1.6 | 3.2 | 0.00 | 0.66 | 0.00 | 89 | |
| 20260507063523 | 7 | 239 | 1.6 | 4.8 | 0.00 | 0.66 | 0.00 | 88 | |
| 20260507062524 | 7 | 248 | 1.6 | 6.4 | 0.00 | 0.66 | 0.00 | 88 | |
| 20260507061524 | 7 | 243 | 1.6 | 6.4 | 0.00 | 0.66 | 0.00 | 88 | |
| 20260507060524 | 7 | 249 | 1.6 | 8.0 | 0.00 | 0.66 | 0.00 | 88 | |
| 20260507055524 | 7 | 244 | 1.6 | 6.4 | 0.00 | 0.66 | 0.00 | 87 | |
| 20260507054523 | 7 | 244 | 1.6 | 6.4 | 0.00 | 0.66 | 0.00 | 87 | |
| 20260507053524 | 7 | 241 | 1.6 | 4.8 | 0.00 | 0.66 | 0.00 | 88 | |
| 20260507052543 | 7 | 251 | 1.6 | 4.8 | 0.00 | 0.66 | 0.00 | 88 | |
| 20260507051523 | 7 | 242 | 1.6 | 4.8 | 0.00 | 0.66 | 0.00 | 87 | |
| 20260507050524 | 7 | 250 | 1.6 | 8.0 | 0.00 | 0.66 | 0.00 | 86 | |
| 20260507045523 | 7 | 258 | 0.0 | 3.2 | 0.00 | 0.66 | 0.00 | 87 | |
| 20260507044524 | 7 | 243 | 1.6 | 8.0 | 0.00 | 0.66 | 0.00 | 86 | |
| 20260507043523 | 7 | 223 | 1.6 | 8.0 | 0.00 | 0.66 | 0.00 | 86 | |
| 20260507042523 | 7 | 251 | 1.6 | 4.8 | 0.00 | 0.66 | 0.00 | 86 | |
| 20260507041523 | 7 | 243 | 1.6 | 6.4 | 0.00 | 0.66 | 0.00 | 87 | |
| 20260507040523 | 7 | 250 | 1.6 | 4.8 | 0.00 | 0.66 | 0.00 | 87 | |
| 20260507035523 | 7 | 242 | 0.0 | 1.6 | 0.00 | 0.66 | 0.66 | 87 | |
| 20260507034523 | 7 | 225 | 1.6 | 3.2 | 0.00 | 0.66 | 0.66 | 86 | |
| 20260507033523 | 7 | 250 | 1.6 | 3.2 | 0.00 | 0.66 | 0.66 | 86 | |
| 20260507032523 | 7 | 235 | 0.0 | 3.2 | 0.00 | 0.66 | 0.66 | 86 | |
| 20260507031523 | 7 | 239 | 1.6 | 6.4 | 0.00 | 0.66 | 0.66 | 86 | |
| 20260507030523 | 7 | 211 | 0.0 | 3.2 | 0.00 | 0.66 | 0.66 | 86 | |
| 20260507025523 | 7 | 248 | 0.0 | 4.8 | 0.00 | 0.66 | 0.66 | 86 | |
| 20260507024523 | 7 | 250 | 1.6 | 4.8 | 0.00 | 0.66 | 0.66 | 86 | |
| 20260507023523 | 7 | 246 | 0.0 | 3.2 | 0.00 | 0.66 | 0.66 | 86 | |
| 20260507022523 | 7 | 242 | 1.6 | 6.4 | 0.00 | 0.66 | 0.66 | 86 | |
| 20260507021523 | 7 | 248 | 1.6 | 3.2 | 0.00 | 0.66 | 0.66 | 88 | |
| 20260507020523 | 7 | 251 | 0.0 | 3.2 | 0.00 | 0.66 | 0.66 | 87 | |
| 20260507015543 | 7 | 0.0 | 0.0 | 0.00 | 0.66 | 0.66 | 88 | ||
| 20260507014523 | 7 | 248 | 0.0 | 1.6 | 0.00 | 0.66 | 0.66 | 87 | |
| 20260507013523 | 7 | 0.0 | 1.6 | 0.00 | 0.66 | 0.66 | 87 | ||
| 20260507012523 | 7 | 243 | 0.0 | 1.6 | 0.00 | 0.66 | 0.66 | 88 | |
| 20260507011523 | 8 | 241 | 0.0 | 1.6 | 0.00 | 0.66 | 0.66 | 87 | |
| 20260507010523 | 8 | 228 | 1.6 | 3.2 | 0.00 | 0.66 | 0.66 | 85 | |
| 20260507005523 | 8 | 236 | 1.6 | 3.2 | 0.00 | 0.66 | 0.66 | 85 | |
| 20260507004543 | 8 | 206 | 1.6 | 4.8 | 0.00 | 0.66 | 0.66 | 85 | |
| 20260507003523 | 8 | 244 | 0.0 | 1.6 | 0.00 | 0.66 | 0.66 | 85 | |
| 20260507002523 | 8 | 231 | 1.6 | 3.2 | 0.00 | 0.66 | 0.66 | 85 | |
| 20260507001523 | 8 | 226 | 1.6 | 3.2 | 0.00 | 0.66 | 0.66 | 85 | |
| 20260507000523 | 8 | 230 | 0.0 | 4.8 | 0.00 | 0.66 | 0.66 | 86 | |
| 20260506235523 | 8 | 202 | 1.6 | 4.8 | 0.00 | 0.66 | 0.66 | 86 | |
| 20260506234523 | 8 | 227 | 0.0 | 3.2 | 0.00 | 0.66 | 0.66 | 85 | |
| 20260506233543 | 8 | 246 | 0.0 | 1.6 | 0.00 | 0.66 | 0.66 | 85 | |
| 20260506232523 | 8 | 235 | 1.6 | 3.2 | 0.00 | 0.66 | 0.66 | 84 | |
| 20260506231523 | 8 | 236 | 0.0 | 3.2 | 0.00 | 0.69 | 0.66 | 84 | |
| 20260506230523 | 8 | 242 | 0.0 | 1.6 | 0.00 | 0.69 | 0.66 | 83 | |
| 20260506225523 | 8 | 238 | 1.6 | 3.2 | 0.00 | 0.69 | 0.66 | 81 | |
| 20260506224523 | 9 | 252 | 0.0 | 0.0 | 0.00 | 0.69 | 0.66 | 81 | |
| 20260506223523 | 9 | 257 | 0.0 | 3.2 | 0.00 | 0.69 | 0.66 | 81 | |
| 20260506222523 | 9 | 228 | 1.6 | 3.2 | 0.00 | 0.69 | 0.66 | 79 | |
| 20260506221523 | 9 | 262 | 0.0 | 3.2 | 0.00 | 0.69 | 0.66 | 78 | |
| 20260506220543 | 9 | 241 | 1.6 | 3.2 | 0.00 | 0.69 | 0.66 | 79 | |
| 20260506215523 | 9 | 218 | 0.0 | 4.8 | 0.00 | 0.69 | 0.66 | 80 | |
| 20260506214523 | 9 | 223 | 1.6 | 3.2 | 0.00 | 0.69 | 0.66 | 80 | |
| 20260506213523 | 9 | 205 | 1.6 | 4.8 | 0.00 | 0.69 | 0.66 | 80 | |
| 20260506212523 | 9 | 251 | 0.0 | 1.6 | 0.00 | 0.69 | 0.66 | 81 | |
| 20260506211523 | 9 | 238 | 0.0 | 1.6 | 0.00 | 0.69 | 0.66 | 79 | |
| 20260506210523 | 9 | 222 | 1.6 | 4.8 | 0.00 | 0.69 | 0.66 | 79 | |
| 20260506205523 | 9 | 236 | 1.6 | 3.2 | 0.00 | 0.69 | 0.66 | 79 | |
| 20260506204523 | 9 | 259 | 1.6 | 3.2 | 0.00 | 0.69 | 0.66 | 80 | |
| 20260506203523 | 9 | 269 | 0.0 | 1.6 | 0.00 | 0.69 | 0.66 | 80 | |
| 20260506202543 | 9 | 246 | 0.0 | 3.2 | 0.00 | 0.69 | 0.66 | 80 | |
| 20260506201523 | 9 | 199 | 1.6 | 4.8 | 0.00 | 0.71 | 0.66 | 79 | |
| 20260506200523 | 9 | 207 | 1.6 | 4.8 | 0.00 | 0.71 | 0.66 | 78 | |
| 20260506195523 | 9 | 237 | 1.6 | 4.8 | 0.00 | 0.71 | 0.66 | 80 | |
| 20260506194523 | 9 | 226 | 1.6 | 3.2 | 0.00 | 0.71 | 0.66 | 80 | |
| 20260506193523 | 9 | 242 | 0.0 | 3.2 | 0.00 | 0.71 | 0.66 | 79 | |
| 20260506192523 | 9 | 328 | 0.0 | 3.2 | 0.00 | 0.71 | 0.66 | 80 | |
| 20260506191522 | 8 | 274 | 1.6 | 4.8 | 0.00 | 0.71 | 0.66 | 80 | |
| 20260506190523 | 9 | 262 | 1.6 | 3.2 | 0.00 | 0.71 | 0.66 | 81 | |
| 20260506185523 | 9 | 254 | 0.0 | 3.2 | 0.00 | 0.71 | 0.66 | 84 | |
| 20260506184523 | 8 | 262 | 1.6 | 4.8 | 0.00 | 0.71 | 0.66 | 84 | |
| 20260506183523 | 9 | 265 | 1.6 | 3.2 | 0.00 | 0.71 | 0.66 | 83 | |
| 20260506182522 | 9 | 231 | 0.0 | 3.2 | 0.00 | 0.71 | 0.66 | 81 | |
| 20260506181523 | 9 | 232 | 0.0 | 3.2 | 0.00 | 0.71 | 0.66 | 81 | |
| 20260506180523 | 9 | 238 | 1.6 | 3.2 | 0.00 | 0.71 | 0.66 | 81 | |
| 20260506175543 | 9 | 239 | 1.6 | 4.8 | 0.00 | 0.71 | 0.66 | 83 | |
| 20260506174523 | 8 | 213 | 1.6 | 6.4 | 0.00 | 0.71 | 0.66 | 86 | |
| 20260506173523 | 8 | 219 | 1.6 | 8.0 | 0.00 | 0.71 | 0.66 | 87 | |
| 20260506172523 | 7 | 188 | 3.2 | 8.0 | 0.00 | 0.71 | 0.66 | 88 | |
| 20260506171523 | 7 | 206 | 3.2 | 8.0 | 0.03 | 0.71 | 0.66 | 88 | |
| 20260506170523 | 7 | 212 | 1.6 | 6.4 | 0.05 | 0.71 | 0.66 | 89 | |
| 20260506165523 | 7 | 199 | 3.2 | 4.8 | 0.08 | 0.71 | 0.66 | 91 | |
| 20260506164603 | 7 | 254 | 1.6 | 3.2 | 0.10 | 0.71 | 0.66 | 93 | |
| 20260506163523 | 7 | 249 | 0.0 | 3.2 | 0.10 | 0.71 | 0.66 | 94 | |
| 20260506162523 | 7 | 224 | 1.6 | 4.8 | 0.10 | 0.71 | 0.66 | 93 | |
| 20260506161543 | 6 | 199 | 3.2 | 6.4 | 0.08 | 0.69 | 0.64 | 93 | |
| 20260506160523 | 7 | 209 | 3.2 | 6.4 | 0.08 | 0.66 | 0.61 | 93 | |
| 20260506155523 | 7 | 232 | 1.6 | 4.8 | 0.05 | 0.66 | 0.58 | 94 | |
| 20260506154523 | 7 | 219 | 1.6 | 6.4 | 0.05 | 0.66 | 0.56 | 92 | |
| 20260506153523 | 7 | 214 | 1.6 | 6.4 | 0.05 | 0.66 | 0.56 | 91 | |
| 20260506152523 | 7 | 206 | 1.6 | 4.8 | 0.10 | 0.66 | 0.56 | 92 | |
| 20260506151522 | 7 | 250 | 0.0 | 3.2 | 0.18 | 0.66 | 0.56 | 93 | |
| 20260506150523 | 7 | 252 | 0.0 | 1.6 | 0.20 | 0.64 | 0.53 | 91 | |
| 20260506145522 | 7 | 246 | 0.0 | 1.6 | 0.25 | 0.64 | 0.53 | 90 | |
| 20260506144523 | 7 | 262 | 0.0 | 1.6 | 0.25 | 0.66 | 0.51 | 91 | |
| 20260506143522 | 7 | 215 | 1.6 | 6.4 | 0.28 | 0.66 | 0.51 | 87 | |
| 20260506142523 | 7 | 225 | 1.6 | 8.0 | 0.23 | 0.61 | 0.46 | 92 | |
| 20260506141522 | 7 | 213 | 1.6 | 4.8 | 0.15 | 0.51 | 0.38 | 93 | |
| 20260506140523 | 7 | 230 | 3.2 | 4.8 | 0.13 | 0.46 | 0.33 | 92 | |
| 20260506135522 | 7 | 220 | 1.6 | 4.8 | 0.13 | 0.43 | 0.28 | 94 | |
| 20260506134522 | 7 | 209 | 1.6 | 4.8 | 0.10 | 0.41 | 0.25 | 94 | |
| 20260506133522 | 7 | 203 | 3.2 | 4.8 | 0.08 | 0.38 | 0.23 | 93 | |
| 20260506132522 | 7 | 238 | 1.6 | 3.2 | 0.10 | 0.38 | 0.23 | 93 | |
| 20260506131523 | 7 | 238 | 0.0 | 3.2 | 0.10 | 0.38 | 0.23 | 93 | |
| 20260506130522 | 7 | 201 | 1.6 | 6.4 | 0.08 | 0.36 | 0.20 | 91 | |
| 20260506125523 | 7 | 242 | 0.0 | 1.6 | 0.03 | 0.30 | 0.15 | 92 | |
| 20260506124522 | 7 | 252 | 0.0 | 3.2 | 0.05 | 0.30 | 0.15 | 91 | |
| 20260506123522 | 7 | 223 | 1.6 | 4.8 | 0.08 | 0.30 | 0.15 | 90 | |
| 20260506122522 | 7 | 210 | 1.6 | 4.8 | 0.08 | 0.28 | 0.15 | 90 | |
| 20260506121522 | 7 | 215 | 1.6 | 3.2 | 0.08 | 0.28 | 0.15 | 90 | |
| 20260506120544 | 7 | 226 | 1.6 | 6.4 | 0.10 | 0.28 | 0.15 | 90 | |
| 20260506115542 | 7 | 192 | 3.2 | 6.4 | 0.10 | 0.28 | 0.15 | 89 | |
| 20260506114522 | 7 | 214 | 1.6 | 6.4 | 0.10 | 0.25 | 0.13 | 88 | |
| 20260506113522 | 7 | 228 | 1.6 | 4.8 | 0.08 | 0.23 | 0.10 | 88 | |
| 20260506112523 | 7 | 205 | 1.6 | 6.4 | 0.08 | 0.20 | 0.08 | 85 | |
| 20260506111523 | 8 | 207 | 3.2 | 8.0 | 0.08 | 0.20 | 0.08 | 82 | |
| 20260506110523 | 8 | 183 | 1.6 | 8.0 | 0.05 | 0.18 | 0.05 | 79 | |
| 20260506105522 | 8 | 219 | 1.6 | 4.8 | 0.05 | 0.18 | 0.05 | 81 | |
| 20260506104523 | 8 | 167 | 4.8 | 11.3 | 0.03 | 0.15 | 0.03 | 77 | |
| 20260506103523 | 8 | 223 | 1.6 | 4.8 | 0.03 | 0.15 | 0.03 | 77 | |
| 20260506102522 | 9 | 251 | 0.0 | 3.2 | 0.00 | 0.15 | 0.00 | 75 | |
| 20260506101523 | 9 | 307 | 0.0 | 0.0 | 0.00 | 0.15 | 0.00 | 75 | |
| 20260506100523 | 9 | 257 | 0.0 | 3.2 | 0.00 | 0.15 | 0.00 | 71 | |
| 20260506095523 | 10 | 249 | 0.0 | 6.4 | 0.00 | 0.15 | 0.00 | 71 | |
| 20260506094522 | 10 | 263 | 1.6 | 4.8 | 0.00 | 0.15 | 0.00 | 71 | |
| 20260506093522 | 10 | 249 | 0.0 | 3.2 | 0.00 | 0.15 | 0.00 | 68 | |
| 20260506092523 | 10 | 249 | 0.0 | 3.2 | 0.00 | 0.15 | 0.00 | 81 | |
| 20260506091522 | 10 | 248 | 0.0 | 1.6 | 0.00 | 0.15 | 0.00 | 84 | |
| 20260506085523 | 10 | 248 | 0.0 | 1.6 | 0.00 | 0.15 | 0.00 | 83 | |
| 20260506084523 | 10 | 249 | 0.0 | 3.2 | 0.00 | 0.15 | 0.00 | 83 | |
| 20260506083522 | 10 | 238 | 1.6 | 3.2 | 0.00 | 0.15 | 0.00 | 82 | |
| 20260506082522 | 10 | 245 | 0.0 | 3.2 | 0.00 | 0.15 | 0.00 | 82 | |
| 20260506081523 | 10 | 242 | 1.6 | 4.8 | 0.00 | 0.15 | 0.00 | 81 | |
| 20260506080522 | 10 | 254 | 0.0 | 3.2 | 0.00 | 0.15 | 0.00 | 81 |